Aeroporto :
LOGIN :

Iscrizione | Disclaimer

   EN    FR    IT 

 










Sommario :    VFR   VFR Marginale   IFR   IFR Intensivo   IFR Molto Intensivo
Visibilità : 
Base nubi : 
>= 8 km
>= 3000ft
5 / 8 km
1000 / 3000 ft
1500m / 5 km
500 / 1000 ft
800 / 1500m
200 / 500 ft
< 800m
< 200 ft
Simboli :   Temporali  Nebbia  Neve Forte  Precipitazioni Forti  Vento > 20 kt
SIGMETs :   Varie  Temporali  Ghiacco  Turbolenza  Onda orograficha  Ceneri Vulcaniche






- Altitudine del aeroporto : 1959 ft
- Codice IATA : HOQ


EDQM - Hof Plauen

ULTIMO METAR :
  • 200850Z 19007KT 170V230 CAVOK 02/M01 Q1007

METARs OBSOLETI :
  • 200820Z 19006KT CAVOK 02/M01 Q1007
  • 200750Z 18005KT 160V220 CAVOK 01/M01 Q1007
  • 200720Z 19006KT 150V220 CAVOK 01/M02 Q1007
  • 200650Z 19007KT 150V220 CAVOK 01/M01 Q1008
  • 200620Z 20008KT CAVOK 01/M01 Q1008

TAF TAF EDQM
Valido dal 20 a 09 ore il 20 a 18 ore UTC


200800Z 2009/2018 19010KT CAVOK



MetMap, La meteo Aeronautica in un colpo d'occhio ! - Copyright ORBIFLY Dicembre 2007 - Disclaimer

ORBIFLY MET'MAP TEAM :

Programmazione e sviluppo : Alexandra Zaïnal
Concezione : Baudouin d'Aumeries
Aiuto per la programmazione : Marc-Olivier Méhu
Supporto tecnico e logistico : Manuel Goepfert
Aiuto per la traduzione : Arnaldo La Scala

Contatto : metmap@orbifly.com




FONTI E CREDITI :

   NOAA